This demonstration page uses our WeatherBlox Daily Observations layout. Learn more.

Left ArrowRight Arrow

36.17497, -115.13722

Hourly Observations for September 17, 2015

Temp ( °F °C ) Dew Point ( °F °C ) Humidity (%) Winds ( mph kmh ) Pressure ( in mb ) Visibility ( mi km ) Precip ( " mm )
12:53 am 00:53 Clear 75 23.9 39 3.9 27 27 SW 13 20 29.84 1011 10 16 N/A
1:53 am 01:53 Clear 74 23.3 37 2.8 26 26 SSW 9 15 29.84 1010 10 16 N/A
2:53 am 02:53 Clear 73 22.8 38 3.3 28 28 SW 8 13 29.83 1010 10 16 N/A
3:53 am 03:53 Clear 71 21.7 37 2.8 29 29 S 8 13 29.84 1011 10 16 N/A
4:53 am 04:53 Clear 70 21.1 37 2.8 30 30 SSW 8 13 29.84 1011 10 16 N/A
5:53 am 05:53 Clear 69 20.6 35 1.7 29 29 VRB 3 6 29.87 1011 10 16 N/A
6:53 am 06:53 Sunny 67 19.4 39 3.9 36 36 N N/A 29.90 1012 10 16 N/A
7:53 am 07:53 Sunny 70 21.1 38 3.3 31 31 N 3 6 29.92 1013 10 16 N/A
8:53 am 08:53 Sunny 72 22.2 37 2.8 28 28 N N/A 29.92 1013 10 16 N/A
9:53 am 09:53 Sunny 76 24.4 34 1.1 22 22 VRB 3 6 29.93 1013 10 16 N/A
10:53 am 10:53 Sunny 77 25 35 1.7 22 22 VRB 5 7 29.93 1013 10 16 N/A
11:53 am 11:53 Sunny 80 26.7 32 undefined 17 17 VRB 3 6 29.92 1013 10 16 N/A
12:53 pm 12:53 Sunny 83 28.3 34 1.1 17 17 WSW 7 11 29.90 1012 10 16 N/A
1:53 pm 13:53 Sunny 85 29.4 35 1.7 17 17 S 12 19 29.88 1012 10 16 N/A
2:53 pm 14:53 Sunny 84 28.9 34 1.1 17 17 N N/A 29.85 1011 10 16 N/A
3:53 pm 15:53 Sunny 87 30.6 32 undefined 14 14 VRB 5 7 29.83 1010 10 16 N/A
4:53 pm 16:53 Sunny 87 30.6 26 -3.3 11 11 SSE 5 7 29.82 1010 10 16 N/A
5:53 pm 17:53 Sunny 87 30.6 25 -3.9 10 10 S 8 13 29.82 1010 10 16 N/A
6:53 pm 18:53 Clear 85 29.4 27 -2.8 12 12 SW 7 11 29.82 1010 10 16 N/A
7:53 pm 19:53 Clear 83 28.3 28 -2.2 13 13 SSW 5 7 29.84 1010 10 16 N/A
8:53 pm 20:53 Clear 80 26.7 29 -1.7 15 15 N N/A 29.86 1011 10 16 N/A
9:53 pm 21:53 Clear 77 25 33 0.6 20 20 NNW 5 7 29.88 1012 10 16 N/A
10:53 pm 22:53 Clear 75 23.9 31 -0.6 20 20 WSW 3 6 29.88 1012 10 16 N/A
11:53 pm 23:53 Clear 74 23.3 33 0.6 22 22 N N/A 29.89 1012 10 16 N/A

Powered by AerisWeather